Regional Weather Roundup
Issued by NWS Wilmington, NC

Home | Current Version | Previous Version | Text Only | Print | Product List | Glossary On
Versions: 1 2 3 4 5 6 7 8 9 10 11 12 13 14 15 16 17 18 19 20 21 22 23 24 25 26 27 28 29 30 31 32 33 34 35 36 37 38 39 40 41 42 43 44 45 46 47 48 49 50
000
ASUS42 KILM 022110
RWRILM
RWRILM
REGIONAL HOURLY WEATHER ROUNDUP
NATIONAL WEATHER SERVICE WILMINGTON NC
400 PM EST MON MAR 02 2015

NOTE: "FAIR" INDICATES FEW OR NO CLOUDS BELOW 12,000 FEET WITH NO
SIGNIFICANT WEATHER AND/OR OBSTRUCTIONS TO VISIBILITY.

...............WFO WILMINGTON COUNTY WARNING AREA...............

......COASTAL NC AND SC COUNTIES......

CITY           SKY/WX    TMP DP  RH WIND       PRES   REMARKS
WILMINGTON     SUNNY     63  48  58 CALM      30.21F
SOUTHPORT      PTSUNNY   59  51  74 E5        30.23R
N MYRTLE BEACH MOSUNNY   63  50  62 NE7       30.21S
MYRTLE BEACH   MOSUNNY   61  52  72 N12       30.24R

......INLAND NC AND SC COUNTIES.......

CITY           SKY/WX    TMP DP  RH WIND       PRES   REMARKS
LUMBERTON      SUNNY     64  49  57 CALM      30.21S
ELIZABETHTOWN  SUNNY     63  48  58 CALM      30.21S
WHITEVILLE     SUNNY     61  49  65 CALM      30.21S
FLORENCE       MOSUNNY   64  50  60 E8        30.20S
DARLINGTON     MOSUNNY   64  52  63 NE10      30.22S

....................REST OF NORTH CAROLINA......................

.........EASTERN NC.........

CITY           SKY/WX    TMP DP  RH WIND       PRES   REMARKS
CAPE HATTERAS  MOSUNNY   44  36  73 N10G20    30.27R
JACKSONVILLE   MOSUNNY   63  45  51 NW6       30.23R
MOREHEAD CITY  MOSUNNY   52  44  74 NE16G24   30.24R
KENANSVILLE    MOSUNNY   62  42  46 NW7G17    30.23S
NEW BERN       MOSUNNY   61  44  53 NE7       30.23R
ELIZABETH CITY MOSUNNY   46  34  62 NE13      30.28R

.........CENTRAL NC.........

CITY           SKY/WX    TMP DP  RH WIND       PRES   REMARKS
RALEIGH DURHAM PTSUNNY   59  37  44 NE7       30.24R
ROCKY MOUNT    MOSUNNY   59  37  44 N6        30.23R
ROANOKE RAPIDS NOT AVBL
FAYETTEVILLE   SUNNY     65  45  48 VRB6      30.21S
HOFFMAN        SUNNY     65  47  52 N8G14     30.23F

.........WESTERN NC.........

CITY           SKY/WX    TMP DP  RH WIND       PRES   REMARKS
CHARLOTTE      MOSUNNY   70  44  39 VRB7      30.19F
GREENSBORO     PTSUNNY   59  32  36 VRB5      30.22S
HICKORY        NOT AVBL
BOONE          NOT AVBL
ASHEVILLE      NOT AVBL

.....................REST OF SOUTH CAROLINA.....................

.........EASTERN SC.........

CITY           SKY/WX    TMP DP  RH WIND       PRES   REMARKS
CHARLESTON     PTSUNNY   73  58  59 W12       30.18F
BEAUFORT MCAS  MOSUNNY   73  59  61 W10       30.20F
HILTON HEAD    SUNNY     63  55  77 SE6       30.22F

.........CENTRAL SC.........

CITY           SKY/WX    TMP DP  RH WIND       PRES   REMARKS
COLUMBIA       PTSUNNY   72  55  55 NW7       30.18R
ORANGEBURG     PTSUNNY   76  55  48 NW8       30.16F
SUMTER SHAW    MOSUNNY   70  54  58 NE13      30.17R

.........WESTERN SC.........

CITY           SKY/WX    TMP DP  RH WIND       PRES   REMARKS
GREENVILLE     NOT AVBL
ROCK HILL      SUNNY     65  50  58 VRB6      30.20S
ANDERSON       MOSUNNY   74  53  48 SW10      30.16S
CLEMSON        NOT AVBL
GREENWOOD      MOSUNNY   71  53  52 W3        30.19S


...................COASTAL AND OFFSHORE REPORTS..................

................LOCAL PIERS AND NC RESERVE................


STATION/POSITION TIME  SKY/WX   TEMP    WIND        PRES    VSBY
                                AIR SEA DIR/SP/G
                 (UTC)          (F)     (DEG/KT/KT) (MB)    (MI)
JOHNY MRCER PIER 2100            54 49  190/  2/  6 1022.7R
NC RESRV MASNBRO 2000            62      10/  3     1022.0S
OCEAN CREST PIER 2100            50 47  180/  5/  6 1022.6R
SPRINGMAID  PIER 2100            59 45  310/  7/  9 1023.1R


................COASTAL AND OFFSHORE BUOYS................


STATION/POSITION TIME  SKY/WX   TEMP    WIND        PRES    VSBY
                                AIR SEA DIR/SP/G
                 (UTC)          (F)     (DEG/KT/KT) (MB)    (MI)
DIMNDSHOAL 41025 NOT AVBL
CAPE LOOKOUT     2000            54      70/  2/  3 1023.2R
ONSLOW BAY 41036 NOT AVBL
5 WRITEBCH 41038 NOT AVBL
MASONBORO  41110 2100               48                N/A
WVE H/P(F/S)=  3/ 7 WND WVE H/P(F/S)=  2/ 7

WILM HARBR 41108 2100               49                N/A
WVE H/P(F/S)=  3/ 9 WND WVE H/P(F/S)=  3/ 9

27WRITEBCH 41037 NOT AVBL
FRYING PAN 41013 2100            54 62  330/  8/ 10 1023.5R
WVE H/P(F/S)=  3/ 9 WND WVE H/P(F/S)=  2/ 4 SWL H/P/D(F/S/D)=  3/130/ 9

SUNST NRSH 41024 2000            51     190/  4/  6   N/A
CAPRS NRSH 41029 NOT AVBL
EDISTO     41004 2100            60 68  250/ 10/ 12 1022.4F
WVE H/P(F/S)=  4/10 WND WVE H/P(F/S)=  2/ 3 SWL H/P/D(F/S/D)=  3/10



..........OFFSHORE BUOYS BEYOND 100 NM OFFSHORE...........
.....IN A TRIANGLE---HAT TO BERMUDA TO BAHAMAS TO HAT.....


STATION/POSITION TIME  SKY/WX   TEMP    WIND        PRES    VSBY
                                AIR SEA DIR/SP/G
                 (UTC)          (F)     (DEG/KT/KT) (MB)    (MI)
150E HAT   41001 NOT AVBL
W BERMUDA  41048 2004            69 69  230/ 16/ 17 1020.5F
WVE H/P(F/S)=  5/ 9 WND WVE H/P(F/S)=  3/ 4 SWL H/P/D(F/S/D)=  3/120/ 9

ATLANTIC S 41049 2015            73 75  120/  2/  4 1021.2F
WVE H/P(F/S)=  7/ 8 WND WVE H/P(F/S)=  2/ 4 SWL H/P/D(F/S/D)=  7/ 30/ 8

E BAHAMAS  41046 2005            77 78   80/ 10/ 12 1020.1
WVE H/P(F/S)=  7/ 9 WND WVE H/P(F/S)=  3/ 4 SWL H/P/D(F/S/D)=  7/ 80/ 9

NE BAHAMAS 41047 2007            74 76  360/  2/  4 1023.0S
WVE H/P(F/S)=  6/ 8 WND WVE H/P(F/S)=  2/ 4 SWL H/P/D(F/S/D)=  7/ 70/ 8

120E CANVRL41010 2100            75 76  300/  4/  6 1023.6S
WVE H/P(F/S)=  5/ 8 WND WVE H/P(F/S)=  2/ 4 SWL H/P/D(F/S/D)=  5/ 80/ 8


END



USA.gov is the U.S. government's official web portal to all federal, state and local government web resources and services.